Terminal Aerodrome Forecast
Issued by NWS

Home | Current Version | Previous Version | Text Only | Print | Product List | Glossary On
Versions: 1 2 3 4 5 6 7 8 9 10 11 12 13 14
000
FTUS41 KRNK 201357 AAA
TAFBCB
TAF AMD
KBCB 201357Z 2014/2112 09012G21KT P6SM SCT250
     FM201700 08010G18KT P6SM SCT250
     FM202300 09003KT P6SM SCT250=

USA.gov is the U.S. government's official web portal to all federal, state and local government web resources and services.